Zhongyuan-1

operational
NORAD ID: 56153 Int'l Des: 2023-047 Owner: PIESAT Country: CN
LEOCIRCULARRETROGRADESSO

About Zhongyuan-1

Description loading...

Live Position

Loading 3D Globe...

Upcoming Passes

Altitude History

Altitude vs Time

uPlot chart will show altitude changes over time

Two-Line Element Set

1 56153U 23047A 26062.56013042 .00007464 00000-0 41121-3 0 9996
2 56153 97.5014 251.2254 0001666 57.5577 302.5816 15.14296658161813
Epoch: Mar 3, 2026 • Age: 22 hours

Current Status

Altitude 528.4 km
Velocity 7.60 km/s
Sub-Earth Point 42.88°N, 119.46°E
Launch Date Mar 30, 2023
Age 2.9 years
Type other

Technical Details

Classification Payload
Mass 320.00 kg
Dry Mass 320.00 kg
Total Mass 320.00 kg
Length 1.00 m
Diameter 1.00 m
Span 4.00 m
Shape Box + 2 Pan
Manufacturer YINHE
Bus Type Piesat
Phase Status In Orbit
Owner/State PIESAT/CN

Large Constellations

Loading constellations...